{"data":{"norad_id":53505,"intl_designator":"2022-099AS","name":"STARLINK-4446","alt_names":[],"object_type":"PAYLOAD","status":"ACTIVE","operator":null,"country":"US","launch_date":"2022-08-12","launch_site_code":"AFWTR","launch_vehicle":null,"mission":null,"orbit_class":"UNKNOWN","rcs_meters":null,"size_class":null,"mass_kg":null,"dimensions":null,"purposes":["comms"],"wikipedia_slug":null,"has_3d_model":false,"image_url":null,"decayed_at":null,"tle_current":{"epoch":"2026-09-20T11:47:54.835296Z","epoch_age_seconds":79784,"freshness":"FRESH","line1":"1 53505U 22099AS  26263.49160689  .00478778  11815-3  52271-3 0  9992","line2":"2 53505  97.6019  45.7844 0006476 254.0324 106.0246 16.09785914226792","mean_motion":16.09785914,"eccentricity":0.0006476,"inclination_deg":97.6019,"raan_deg":45.7844,"arg_perigee_deg":254.0324,"mean_anomaly_deg":106.0246,"bstar":0.00052271,"rev_number":22679,"period_min":89.452888578326,"perigee_km":243.13993314269,"apogee_km":251.72136836394,"semimajor_km":6625.5676507533,"source":"CELESTRAK","updated_at":"2026-09-21T09:00:32.896936Z"}}}